Time,TemperatureF,DewpointF,PressureIn,WindDirection,WindDirectionDegrees,WindSpeedMPH,WindSpeedGustMPH,Humidity,HourlyPrecipIn,Conditions,Clouds,dailyrainin,SoftwareType,DateUTC
2013-09-06 00:00:00,81.3,76.4,30.05,SSW,202,0.0,5.0,85,0.00,,---,0.00,VWS V14.01,2013-09-06 04:00:00,
2013-09-06 01:00:00,79.8,75.2,30.05,WNW,292,0.0,4.0,86,0.00,,---,0.00,VWS V14.01,2013-09-06 05:00:00,
2013-09-06 02:00:00,79.6,75.4,30.06,South,180,0.0,6.0,87,0.00,,---,0.00,VWS V14.01,2013-09-06 06:00:00,
2013-09-06 03:00:00,79.5,74.6,30.05,SSE,158,3.0,10.0,85,0.00,,---,0.00,VWS V14.01,2013-09-06 07:00:00,
2013-09-06 04:00:00,77.8,72.9,30.02,SW,225,0.0,3.0,85,0.00,,---,0.00,VWS V14.01,2013-09-06 08:00:00,
2013-09-06 05:00:00,77.2,72.7,30.02,WSW,248,0.0,3.0,86,0.00,,---,0.00,VWS V14.01,2013-09-06 09:00:00,
2013-09-06 06:00:00,76.7,72.5,30.01,WSW,248,0.0,3.0,87,0.00,,---,0.00,VWS V14.01,2013-09-06 10:00:00,
2013-09-06 07:00:00,76.1,72.6,30.02,WSW,248,0.0,0.0,89,0.00,,---,0.00,VWS V14.01,2013-09-06 11:00:00,
2013-09-06 08:00:00,75.5,72.4,30.03,WSW,248,0.0,2.0,90,0.00,,---,0.00,VWS V14.01,2013-09-06 12:00:00,
2013-09-06 09:00:00,76.4,73.9,30.04,WSW,248,0.0,1.0,92,0.00,,---,0.00,VWS V14.01,2013-09-06 13:00:00,
2013-09-06 10:00:00,80.3,76.8,30.05,WSW,248,0.0,2.0,89,0.00,,---,0.00,VWS V14.01,2013-09-06 14:00:00,
2013-09-06 11:00:00,82.6,77.3,30.06,NE,45,1.0,4.0,84,0.00,,---,0.00,VWS V14.01,2013-09-06 15:00:00,
2013-09-06 12:00:00,85.7,77.3,30.06,NE,45,1.0,5.0,76,0.00,,---,0.00,VWS V14.01,2013-09-06 16:00:00,
2013-09-06 13:00:00,87.1,77.0,30.06,NE,45,2.0,5.0,72,0.00,,---,0.00,VWS V14.01,2013-09-06 17:00:00,
2013-09-06 14:00:00,86.1,77.2,30.06,NE,45,4.0,10.0,75,0.00,,---,0.00,VWS V14.01,2013-09-06 18:00:00,
2013-09-06 15:00:00,84.4,77.2,30.04,NE,45,6.0,13.0,79,0.00,,---,0.00,VWS V14.01,2013-09-06 19:00:00,
2013-09-06 16:00:00,83.8,77.3,30.03,NE,45,7.0,14.0,81,0.00,,---,0.00,VWS V14.01,2013-09-06 20:00:00,
2013-09-06 17:00:00,83.0,77.3,29.99,NE,45,6.0,12.0,83,0.00,,---,0.00,VWS V14.01,2013-09-06 21:00:00,
2013-09-06 18:00:00,80.4,75.8,29.99,SE,135,7.0,14.0,86,0.00,,---,0.00,VWS V14.01,2013-09-06 22:00:00,
2013-09-06 19:00:00,80.5,75.6,30.00,SSE,158,5.0,15.0,85,0.00,,---,0.00,VWS V14.01,2013-09-06 23:00:00,
2013-09-06 20:00:00,80.0,74.7,30.01,South,180,3.0,9.0,84,0.00,,---,0.00,VWS V14.01,2013-09-07 00:00:00,
2013-09-06 21:00:00,78.5,73.6,30.01,SW,225,2.0,7.0,85,0.00,,---,0.00,VWS V14.01,2013-09-07 01:00:00,
2013-09-06 22:00:00,77.6,73.4,30.01,WSW,248,1.0,6.0,87,0.00,,---,0.00,VWS V14.01,2013-09-07 02:00:00,
2013-09-06 23:00:00,76.8,73.3,30.01,WSW,248,0.0,3.0,89,0.00,,---,0.00,VWS V14.01,2013-09-07 03:00:00,